Storm Lake, IA

2:37 AM CDT on May 25, 2017 (GMT -0500)
Storm Lake Municipal

Weather History for KSLB - September, 2014

Change the Weather History Date:

Wednesday, September 17, 2014

  Actual Average Record
Temperature  
Mean Temperature 62 °F -  
Max Temperature 75 °F 72 °F 93 °F (2000)
Min Temperature 48 °F 50 °F 42 °F (2012)
Degree Days  
Heating Degree Days 4    
Growing Degree Days 12 (Base 50)    
Moisture  
Dew Point 55 °F    
Average Humidity 84    
Maximum Humidity 100    
Minimum Humidity 57    
Precipitation  
Precipitation 0.00 in - - ()
Sea Level Pressure  
Sea Level Pressure 29.96 in    
Wind  
Wind Speed 6 mph (SSE)    
Max Wind Speed 9 mph    
Max Gust Speed 13 mph    
Visibility 10 miles    
Events      
Averages and records for this station are not official NWS values.
T = Trace of Precipitation, MM = Missing Value Source: NWS Daily Summary

Daily Weather History Graph

Daily Weather History Graph

Search for Another Location

Airport or City:

Trip Planner

Search our weather history database for the weather conditions in past years. The results will help you decide how hot, cold, wet, or windy it might be!

Date:

Astronomy

Sep. 17, 2014 Rise Set
Actual Time 7:02 AM CDT 7:27 PM CDT
Civil Twilight 6:34 AM CDT 7:55 PM CDT
Nautical Twilight 6:01 AM CDT 8:28 PM CDT
Astronomical Twilight 5:27 AM CDT 9:02 PM CDT
Moon 12:58 AM CDT (9/17) 3:42 PM CDT (9/17)
Length of Visible Light 13h 20m
Length of Day
12h 24m
Waning Crescent, 34% of the Moon is Illuminated
Sep 17
Waning Crescent
Sep 24
New
Oct 1
First Quarter
Oct 8
Full
Oct 15
Last Quarter

Hourly Weather History & Observations

Time (CDT) Temp. Dew Point Humidity Pressure Visibility Wind Dir Wind Speed Gust Speed Precip Events Conditions
12:15 AM 50.0 °F 50.0 °F 100% 30.01 in 10.0 mi SSE 6.9 mph - N/A   Clear
12:35 AM 48.2 °F 48.2 °F 100% 30.00 in 10.0 mi SSE 6.9 mph - N/A   Clear
12:55 AM 50.0 °F 50.0 °F 100% 29.99 in 10.0 mi SSE 9.2 mph - N/A   Clear
1:15 AM 50.0 °F 50.0 °F 100% 29.99 in 10.0 mi SSE 9.2 mph - N/A   Clear
1:35 AM 50.0 °F 50.0 °F 100% 30.00 in 10.0 mi South 8.1 mph - N/A   Clear
1:55 AM 50.0 °F 50.0 °F 100% 29.99 in 10.0 mi South 8.1 mph - N/A   Clear
2:15 AM 48.2 °F 48.2 °F 100% 29.99 in 10.0 mi South 8.1 mph - N/A   Clear
2:35 AM 48.2 °F 48.2 °F 100% 29.98 in 10.0 mi South 8.1 mph - N/A   Clear
2:55 AM 48.2 °F 48.2 °F 100% 29.99 in 10.0 mi South 6.9 mph - N/A   Clear
3:15 AM 48.2 °F 48.2 °F 100% 29.98 in 10.0 mi South 6.9 mph - N/A   Clear
3:35 AM 48.2 °F 48.2 °F 100% 29.97 in 10.0 mi South 8.1 mph - N/A   Clear
3:55 AM 50.0 °F 50.0 °F 100% 29.97 in 10.0 mi South 6.9 mph - N/A   Scattered Clouds
4:15 AM 50.0 °F 50.0 °F 100% 29.96 in 10.0 mi South 6.9 mph - N/A   Overcast
4:35 AM 51.8 °F 51.8 °F 100% 29.96 in 10.0 mi South 6.9 mph - N/A   Overcast
4:55 AM 51.8 °F 51.8 °F 100% 29.95 in 10.0 mi South 6.9 mph - N/A   Overcast
5:15 AM 51.8 °F 51.8 °F 100% 29.95 in 10.0 mi South 8.1 mph - N/A   Overcast
5:35 AM 51.8 °F 51.8 °F 100% 29.95 in 10.0 mi South 8.1 mph - N/A   Overcast
5:55 AM 51.8 °F 51.8 °F 100% 29.95 in 10.0 mi South 6.9 mph - N/A   Mostly Cloudy
6:15 AM 51.8 °F 51.8 °F 100% 29.94 in 10.0 mi South 8.1 mph - N/A   Mostly Cloudy
6:35 AM 50.0 °F 50.0 °F 100% 29.94 in 10.0 mi South 5.8 mph - N/A   Scattered Clouds
6:55 AM 50.0 °F 50.0 °F 100% 29.95 in 10.0 mi South 8.1 mph - N/A   Clear
7:15 AM 48.2 °F 48.2 °F 100% 29.94 in - South 8.1 mph - N/A   Clear
7:35 AM 50.0 °F 50.0 °F 100% 29.94 in 10.0 mi South 5.8 mph - N/A   Clear
7:55 AM 51.8 °F 51.8 °F 100% 29.94 in 10.0 mi South 6.9 mph - N/A   Clear
8:15 AM 53.6 °F 53.6 °F 100% 29.94 in 10.0 mi South 4.6 mph - N/A   Clear
8:35 AM 55.4 °F 55.4 °F 100% 29.94 in 9.0 mi Calm Calm - N/A   Clear
8:55 AM 57.2 °F 55.4 °F 94% 29.94 in 9.0 mi Calm Calm - N/A   Clear
9:15 AM 59.0 °F 57.2 °F 94% 29.95 in 10.0 mi Calm Calm - N/A   Clear
9:35 AM 60.8 °F 57.2 °F 88% 29.95 in 10.0 mi SW 4.6 mph - N/A   Clear
9:55 AM 60.8 °F 57.2 °F 88% 29.95 in 10.0 mi Calm Calm - N/A   Clear
10:15 AM 64.4 °F 59.0 °F 83% 29.95 in 10.0 mi Calm Calm - N/A   Clear
10:35 AM 66.2 °F 59.0 °F 78% 29.95 in 10.0 mi Calm Calm - N/A   Clear
10:55 AM 66.2 °F 59.0 °F 78% 29.95 in 10.0 mi Calm Calm - N/A   Clear
11:15 AM 68.0 °F 59.0 °F 73% 29.95 in 10.0 mi Calm Calm - N/A   Clear
11:35 AM 69.8 °F 59.0 °F 68% 29.95 in 10.0 mi Calm Calm - N/A   Clear
12:15 PM 71.6 °F 57.2 °F 60% 29.96 in 10.0 mi Variable 5.8 mph - N/A   Clear
12:35 PM 71.6 °F 57.2 °F 60% 29.95 in 10.0 mi Variable 5.8 mph - N/A   Clear
1:15 PM 71.6 °F 57.2 °F 60% 29.94 in 10.0 mi SE 6.9 mph - N/A   Clear
1:35 PM 71.6 °F 57.2 °F 60% 29.94 in 10.0 mi Calm Calm - N/A   Clear
1:55 PM 73.4 °F 57.2 °F 57% 29.94 in 10.0 mi East 6.9 mph 12.7 mph N/A   Clear
2:15 PM 73.4 °F 57.2 °F 57% 29.93 in 10.0 mi Variable 5.8 mph - N/A   Clear
2:35 PM 73.4 °F 57.2 °F 57% 29.93 in 10.0 mi East 6.9 mph - N/A   Clear
2:55 PM 73.4 °F 57.2 °F 57% 29.93 in 10.0 mi Variable 4.6 mph 11.5 mph N/A   Clear
3:15 PM 73.4 °F 57.2 °F 57% 29.93 in 10.0 mi Calm Calm - N/A   Clear
3:35 PM 73.4 °F 57.2 °F 57% 29.93 in 10.0 mi Calm Calm - N/A   Clear
3:55 PM 73.4 °F 57.2 °F 57% 29.93 in 10.0 mi Variable 4.6 mph - N/A   Clear
4:15 PM 75.2 °F 59.0 °F 57% 29.93 in 10.0 mi SE 8.1 mph - N/A   Clear
4:35 PM 73.4 °F 57.2 °F 57% 29.93 in 10.0 mi Calm Calm - N/A   Clear
4:55 PM 73.4 °F 57.2 °F 57% 29.93 in 10.0 mi ESE 3.5 mph - N/A   Clear
5:15 PM 73.4 °F 57.2 °F 57% 29.93 in 10.0 mi Calm Calm - N/A   Clear
5:35 PM 73.4 °F 59.0 °F 61% 29.93 in 10.0 mi SE 5.8 mph - N/A   Clear
5:55 PM 73.4 °F 57.2 °F 57% 29.93 in 10.0 mi East 4.6 mph - N/A   Clear
6:15 PM 73.4 °F 59.0 °F 61% 29.93 in 10.0 mi ESE 5.8 mph - N/A   Clear
6:35 PM 71.6 °F 59.0 °F 64% 29.94 in 10.0 mi SE 4.6 mph - N/A   Clear
6:55 PM 69.8 °F 59.0 °F 68% 29.94 in 10.0 mi ESE 4.6 mph - N/A   Clear
7:35 PM 64.4 °F 59.0 °F 83% 29.94 in 10.0 mi SE 4.6 mph - N/A   Clear
7:55 PM 62.6 °F 59.0 °F 88% 29.95 in 10.0 mi ESE 4.6 mph - N/A   Clear
8:15 PM 60.8 °F 57.2 °F 88% 29.96 in 10.0 mi ESE 5.8 mph - N/A   Clear
8:55 PM 59.0 °F 55.4 °F 88% 29.97 in 10.0 mi SE 5.8 mph - N/A   Clear
9:15 PM 59.0 °F 55.4 °F 88% 29.98 in 10.0 mi SE 5.8 mph - N/A   Clear
9:35 PM 59.0 °F 55.4 °F 88% 29.98 in 10.0 mi SE 5.8 mph - N/A   Clear
9:55 PM 59.0 °F 55.4 °F 88% 29.98 in 10.0 mi SE 6.9 mph - N/A   Clear
10:15 PM 59.0 °F 55.4 °F 88% 29.99 in 10.0 mi SE 6.9 mph - N/A   Clear
10:35 PM 57.2 °F 55.4 °F 94% 30.00 in 10.0 mi SE 6.9 mph - N/A   Clear
10:55 PM 57.2 °F 55.4 °F 94% 30.00 in 10.0 mi SE 8.1 mph - N/A   Clear
11:15 PM 57.2 °F 55.4 °F 94% 30.00 in 10.0 mi SE 8.1 mph - N/A   Clear
11:35 PM 57.2 °F 55.4 °F 94% 30.00 in 10.0 mi SE 6.9 mph - N/A   Clear
11:55 PM 57.2 °F 55.4 °F 94% 30.00 in 10.0 mi SSE 6.9 mph - N/A   Clear